| time (UTC) | temp F | wind direction | speed MPH | gust MPH | rain 1hr in | rain 24hr in | rain mn in | humidity % | barometer mb |
| 20260831011905 | 64 | 86 | 0.0 | 2.0 | 0.00 | 0.16 | 0.15 | 97 | 1016.3 |
| 20260831011411 | 64 | 94 | 0.0 | 2.0 | 0.00 | 0.16 | 0.15 | 97 | 1016.1 |
| 20260831010906 | 64 | 105 | 0.0 | 2.0 | 0.00 | 0.16 | 0.15 | 97 | 1016.0 |
| 20260831010405 | 64 | 80 | 0.0 | 2.0 | 0.00 | 0.16 | 0.15 | 97 | 1015.9 |
| 20260831005911 | 64 | 83 | 0.0 | 2.0 | 0.00 | 0.16 | 0.15 | 97 | 1015.8 |
| 20260831005405 | 64 | 66 | 1.0 | 2.0 | 0.00 | 0.16 | 0.15 | 97 | 1015.8 |
| 20260831004906 | 64 | 137 | 0.0 | 2.0 | 0.00 | 0.16 | 0.15 | 97 | 1015.8 |
| 20260831004411 | 64 | 88 | 0.0 | 2.0 | 0.00 | 0.16 | 0.15 | 97 | 1015.7 |
| 20260831003906 | 64 | 97 | 0.0 | 2.0 | 0.00 | 0.16 | 0.15 | 97 | 1015.9 |
| 20260831002905 | 64 | 117 | 0.0 | 2.0 | 0.00 | 0.16 | 0.15 | 97 | 1015.9 |
| 20260831001412 | 64 | 132 | 0.0 | 2.0 | 0.00 | 0.16 | 0.15 | 96 | 1015.7 |
| 20260831000905 | 64 | 101 | 0.0 | 1.0 | 0.00 | 0.16 | 0.15 | 96 | 1015.7 |
| 20260830235909 | 64 | 97 | 0.0 | 2.0 | 0.00 | 0.16 | 0.15 | 96 | 1015.8 |
| 20260830235406 | 64 | 104 | 0.0 | 2.0 | 0.00 | 0.16 | 0.15 | 96 | 1015.7 |
| 20260830234905 | 64 | 67 | 0.0 | 3.0 | 0.00 | 0.16 | 0.15 | 96 | 1015.9 |
| 20260830234411 | 64 | 102 | 0.0 | 2.0 | 0.00 | 0.16 | 0.15 | 96 | 1015.9 |
| 20260830233921 | 64 | 134 | 1.0 | 2.0 | 0.00 | 0.16 | 0.15 | 96 | 1016.0 |
| 20260830232905 | 64 | 63 | 1.0 | 3.0 | 0.00 | 0.16 | 0.15 | 96 | 1016.1 |
| 20260830231405 | 65 | 84 | 1.0 | 2.0 | 0.00 | 0.16 | 0.15 | 96 | 1015.8 |
| 20260830230905 | 65 | 115 | 0.0 | 2.0 | 0.00 | 0.16 | 0.15 | 96 | 1015.9 |
| 20260830230405 | 65 | 122 | 1.0 | 3.0 | 0.00 | 0.16 | 0.15 | 96 | 1016.1 |
| 20260830225405 | 64 | 134 | 1.0 | 2.0 | 0.00 | 0.16 | 0.15 | 96 | 1016.2 |
| 20260830224904 | 65 | 97 | 1.0 | 2.0 | 0.00 | 0.16 | 0.15 | 95 | 1016.5 |
| 20260830224405 | 65 | 100 | 0.0 | 2.0 | 0.00 | 0.16 | 0.15 | 95 | 1016.5 |
| 20260830223905 | 65 | 105 | 0.0 | 2.0 | 0.00 | 0.16 | 0.15 | 95 | 1016.3 |
| 20260830223405 | 65 | 100 | 1.0 | 2.0 | 0.00 | 0.16 | 0.15 | 95 | 1016.2 |
| 20260830222905 | 65 | 113 | 1.0 | 3.0 | 0.00 | 0.16 | 0.15 | 95 | 1016.3 |
| 20260830222405 | 65 | 135 | 1.0 | 3.0 | 0.00 | 0.16 | 0.15 | 95 | 1016.3 |
| 20260830221905 | 66 | 101 | 1.0 | 2.0 | 0.00 | 0.16 | 0.15 | 95 | 1016.3 |
| 20260830221405 | 66 | 138 | 1.0 | 2.0 | 0.00 | 0.16 | 0.15 | 95 | 1016.2 |
| 20260830220905 | 66 | 92 | 1.0 | 2.0 | 0.00 | 0.16 | 0.15 | 95 | 1016.2 |
| 20260830220405 | 66 | 102 | 0.0 | 2.0 | 0.00 | 0.16 | 0.15 | 95 | 1016.3 |
| 20260830215906 | 66 | 95 | 0.0 | 2.0 | 0.00 | 0.16 | 0.15 | 95 | 1016.3 |
| 20260830214905 | 67 | 106 | 0.0 | 2.0 | 0.00 | 0.16 | 0.15 | 95 | 1016.4 |
| 20260830214405 | 67 | 113 | 0.0 | 2.0 | 0.00 | 0.16 | 0.15 | 95 | 1016.4 |
| 20260830213406 | 67 | 93 | 0.0 | 1.0 | 0.00 | 0.16 | 0.15 | 95 | 1016.2 |
| 20260830212905 | 67 | 75 | 0.0 | 2.0 | 0.00 | 0.16 | 0.15 | 94 | 1016.3 |
| 20260830211905 | 67 | 48 | 1.0 | 2.0 | 0.00 | 0.16 | 0.15 | 94 | 1016.2 |
| 20260830210405 | 67 | 60 | 0.0 | 2.0 | 0.00 | 0.16 | 0.15 | 94 | 1015.9 |
| 20260830205906 | 68 | 76 | 1.0 | 2.0 | 0.00 | 0.16 | 0.15 | 94 | 1016.0 |
| 20260830205405 | 68 | 38 | 1.0 | 3.0 | 0.01 | 0.16 | 0.15 | 95 | 1015.8 |
| 20260830204905 | 68 | 97 | 0.0 | 2.0 | 0.01 | 0.16 | 0.15 | 95 | 1015.8 |
| 20260830204405 | 68 | 135 | 0.0 | 2.0 | 0.01 | 0.16 | 0.15 | 95 | 1015.9 |
| 20260830203905 | 68 | 110 | 0.0 | 2.0 | 0.01 | 0.16 | 0.15 | 95 | 1015.7 |
| 20260830203405 | 68 | 95 | 0.0 | 2.0 | 0.01 | 0.16 | 0.15 | 96 | 1015.9 |
| 20260830202905 | 68 | 89 | 0.0 | 3.0 | 0.01 | 0.16 | 0.15 | 96 | 1016.0 |
| 20260830202405 | 67 | 106 | 1.0 | 2.0 | 0.01 | 0.16 | 0.15 | 95 | 1016.0 |
| 20260830201905 | 67 | 56 | 1.0 | 2.0 | 0.01 | 0.16 | 0.15 | 95 | 1015.9 |
| 20260830201405 | 67 | 73 | 0.0 | 2.0 | 0.01 | 0.16 | 0.15 | 96 | 1015.9 |
| 20260830200904 | 68 | 50 | 1.0 | 2.0 | 0.01 | 0.16 | 0.15 | 96 | 1015.8 |
| 20260830200404 | 68 | 81 | 1.0 | 2.0 | 0.01 | 0.16 | 0.15 | 97 | 1015.8 |
| 20260830195905 | 68 | 56 | 0.0 | 2.0 | 0.01 | 0.16 | 0.15 | 97 | 1015.8 |
| 20260830195405 | 68 | 131 | 0.0 | 2.0 | 0.00 | 0.15 | 0.14 | 97 | 1015.9 |
| 20260830194405 | 67 | 65 | 1.0 | 2.0 | 0.00 | 0.15 | 0.14 | 97 | 1015.9 |
| 20260830193905 | 67 | 132 | 0.0 | 2.0 | 0.00 | 0.15 | 0.14 | 97 | 1015.9 |
| 20260830193405 | 67 | 90 | 1.0 | 2.0 | 0.00 | 0.15 | 0.14 | 97 | 1016.0 |
| 20260830192905 | 67 | 151 | 0.0 | 2.0 | 0.00 | 0.15 | 0.14 | 97 | 1016.0 |
| 20260830192405 | 66 | 103 | 0.0 | 2.0 | 0.00 | 0.15 | 0.14 | 97 | 1016.1 |
| 20260830191905 | 67 | 86 | 0.0 | 2.0 | 0.00 | 0.15 | 0.14 | 97 | 1016.1 |
| 20260830191405 | 67 | 102 | 0.0 | 2.0 | 0.00 | 0.15 | 0.14 | 97 | 1016.0 |
| 20260830190905 | 66 | 104 | 0.0 | 2.0 | 0.00 | 0.15 | 0.14 | 97 | 1016.0 |
| 20260830190405 | 66 | 87 | 1.0 | 2.0 | 0.00 | 0.15 | 0.14 | 97 | 1016.0 |
| 20260830185905 | 66 | 74 | 0.0 | 2.0 | 0.00 | 0.15 | 0.14 | 97 | 1016.0 |
| 20260830185412 | 66 | 110 | 0.0 | 1.0 | 0.00 | 0.15 | 0.14 | 97 | 1016.0 |
| 20260830184905 | 66 | 96 | 0.0 | 2.0 | 0.00 | 0.15 | 0.14 | 97 | 1016.1 |
| 20260830184405 | 66 | 88 | 0.0 | 2.0 | 0.00 | 0.15 | 0.14 | 97 | 1016.1 |
| 20260830183910 | 66 | 97 | 0.0 | 1.0 | 0.00 | 0.15 | 0.14 | 97 | 1016.1 |
| 20260830183405 | 66 | 110 | 0.0 | 2.0 | 0.00 | 0.15 | 0.14 | 97 | 1016.2 |
| 20260830182905 | 66 | 131 | 0.0 | 2.0 | 0.00 | 0.15 | 0.14 | 97 | 1016.2 |
| 20260830181905 | 66 | 97 | 1.0 | 2.0 | 0.00 | 0.15 | 0.14 | 97 | 1016.3 |
| 20260830181406 | 66 | 89 | 1.0 | 3.0 | 0.00 | 0.15 | 0.14 | 97 | 1016.2 |
| 20260830180911 | 66 | 116 | 1.0 | 3.0 | 0.00 | 0.15 | 0.14 | 97 | 1016.2 |
| 20260830180405 | 66 | 67 | 1.0 | 3.0 | 0.00 | 0.15 | 0.14 | 97 | 1016.2 |
| 20260830175906 | 66 | 109 | 1.0 | 2.0 | 0.00 | 0.15 | 0.14 | 97 | 1016.2 |
| 20260830175411 | 66 | 85 | 1.0 | 2.0 | 0.00 | 0.15 | 0.14 | 97 | 1016.1 |
| 20260830174905 | 66 | 75 | 1.0 | 2.0 | 0.00 | 0.15 | 0.14 | 97 | 1016.0 |
| 20260830174405 | 66 | 64 | 1.0 | 3.0 | 0.00 | 0.15 | 0.14 | 97 | 1016.0 |
| 20260830173910 | 66 | 75 | 1.0 | 2.0 | 0.00 | 0.15 | 0.14 | 97 | 1016.0 |
| 20260830173405 | 66 | 108 | 1.0 | 2.0 | 0.00 | 0.15 | 0.14 | 97 | 1016.0 |
| 20260830171905 | 65 | 52 | 1.0 | 2.0 | 0.00 | 0.15 | 0.14 | 97 | 1016.1 |
| 20260830171405 | 66 | 75 | 1.0 | 2.0 | 0.00 | 0.15 | 0.14 | 97 | 1016.0 |
| 20260830170910 | 66 | 39 | 1.0 | 2.0 | 0.00 | 0.15 | 0.14 | 97 | 1016.0 |
| 20260830170404 | 66 | 86 | 1.0 | 2.0 | 0.00 | 0.15 | 0.14 | 97 | 1016.0 |
| 20260830165407 | 65 | 88 | 1.0 | 2.0 | 0.00 | 0.15 | 0.14 | 97 | 1016.0 |
| 20260830164905 | 65 | 110 | 1.0 | 2.0 | 0.00 | 0.15 | 0.14 | 97 | 1016.0 |
| 20260830164405 | 65 | 110 | 1.0 | 2.0 | 0.00 | 0.15 | 0.14 | 97 | 1016.0 |
| 20260830163905 | 65 | 58 | 1.0 | 2.0 | 0.00 | 0.15 | 0.14 | 98 | 1016.1 |
| 20260830163404 | 65 | 80 | 1.0 | 2.0 | 0.00 | 0.15 | 0.14 | 98 | 1016.0 |
| 20260830162905 | 65 | 84 | 1.0 | 2.0 | 0.00 | 0.15 | 0.14 | 97 | 1016.2 |
| 20260830162411 | 65 | 65 | 1.0 | 2.0 | 0.00 | 0.15 | 0.14 | 97 | 1016.2 |
| 20260830161905 | 65 | 89 | 1.0 | 2.0 | 0.00 | 0.15 | 0.14 | 97 | 1016.4 |
| 20260830161405 | 65 | 153 | 1.0 | 2.0 | 0.00 | 0.15 | 0.14 | 97 | 1016.5 |
| 20260830160905 | 65 | 159 | 1.0 | 2.0 | 0.00 | 0.15 | 0.14 | 97 | 1016.5 |
| 20260830160405 | 65 | 107 | 0.0 | 2.0 | 0.00 | 0.15 | 0.14 | 97 | 1016.5 |
| 20260830155905 | 65 | 83 | 1.0 | 2.0 | 0.00 | 0.15 | 0.14 | 97 | 1016.6 |
| 20260830155411 | 65 | 68 | 1.0 | 3.0 | 0.00 | 0.15 | 0.14 | 97 | 1016.6 |
| 20260830153405 | 65 | 90 | 1.0 | 2.0 | 0.00 | 0.15 | 0.14 | 97 | 1016.6 |
| 20260830152905 | 65 | 161 | 1.0 | 2.0 | 0.00 | 0.15 | 0.14 | 97 | 1016.4 |
| 20260830152412 | 65 | 40 | 1.0 | 2.0 | 0.00 | 0.15 | 0.14 | 97 | 1016.5 |
| 20260830151904 | 65 | 91 | 0.0 | 2.0 | 0.00 | 0.15 | 0.14 | 97 | 1016.4 |
| 20260830151405 | 65 | 30 | 0.0 | 2.0 | 0.00 | 0.15 | 0.14 | 97 | 1016.4 |
| 20260830150905 | 65 | 190 | 0.0 | 2.0 | 0.00 | 0.15 | 0.14 | 97 | 1016.3 |
| 20260830150405 | 64 | 98 | 0.0 | 2.0 | 0.00 | 0.15 | 0.14 | 97 | 1016.4 |
| 20260830145904 | 64 | 137 | 1.0 | 2.0 | 0.00 | 0.15 | 0.14 | 97 | 1016.4 |
| 20260830145404 | 64 | 133 | 0.0 | 2.0 | 0.00 | 0.15 | 0.14 | 97 | 1016.3 |
| 20260830144905 | 64 | 111 | 0.0 | 2.0 | 0.00 | 0.15 | 0.14 | 97 | 1016.3 |
| 20260830144405 | 64 | 109 | 0.0 | 2.0 | 0.00 | 0.15 | 0.14 | 97 | 1016.4 |
| 20260830143906 | 64 | 113 | 0.0 | 2.0 | 0.00 | 0.15 | 0.14 | 97 | 1016.3 |
| 20260830143404 | 64 | 88 | 0.0 | 1.0 | 0.00 | 0.15 | 0.14 | 97 | 1016.4 |
| 20260830142905 | 64 | 85 | 0.0 | 2.0 | 0.00 | 0.15 | 0.14 | 97 | 1016.4 |
| 20260830142405 | 64 | 84 | 0.0 | 2.0 | 0.00 | 0.15 | 0.14 | 97 | 1016.2 |
| 20260830141905 | 64 | 127 | 0.0 | 2.0 | 0.00 | 0.15 | 0.14 | 97 | 1016.1 |
| 20260830141405 | 64 | 121 | 1.0 | 2.0 | 0.00 | 0.15 | 0.14 | 97 | 1016.1 |
| 20260830140905 | 64 | 131 | 1.0 | 3.0 | 0.00 | 0.15 | 0.14 | 97 | 1016.1 |
| 20260830140404 | 64 | 94 | 1.0 | 3.0 | 0.01 | 0.15 | 0.14 | 97 | 1016.1 |
| 20260830135905 | 64 | 83 | 0.0 | 2.0 | 0.01 | 0.15 | 0.14 | 97 | 1016.0 |
| 20260830135405 | 64 | 72 | 1.0 | 2.0 | 0.01 | 0.15 | 0.14 | 97 | 1016.1 |
| 20260830134905 | 64 | 141 | 1.0 | 2.0 | 0.01 | 0.15 | 0.14 | 97 | 1016.0 |
| 20260830133904 | 64 | 147 | 1.0 | 2.0 | 0.01 | 0.15 | 0.14 | 97 | 1016.2 |
| 20260830132905 | 64 | 163 | 1.0 | 2.0 | 0.01 | 0.15 | 0.14 | 97 | 1016.1 |
| 20260830132405 | 64 | 154 | 1.0 | 2.0 | 0.01 | 0.15 | 0.14 | 97 | 1016.1 |
| 20260830131412 | 64 | 116 | 1.0 | 2.0 | 0.02 | 0.15 | 0.14 | 97 | 1016.2 |
| 20260830130905 | 64 | 68 | 1.0 | 2.0 | 0.02 | 0.15 | 0.14 | 97 | 1016.4 |
| 20260830130405 | 64 | 110 | 0.0 | 2.0 | 0.01 | 0.14 | 0.13 | 97 | 1016.4 |
| 20260830125404 | 64 | 174 | 1.0 | 2.0 | 0.01 | 0.14 | 0.13 | 97 | 1016.3 |
| 20260830124905 | 64 | 200 | 1.0 | 2.0 | 0.01 | 0.14 | 0.13 | 97 | 1016.3 |
| 20260830124412 | 64 | 89 | 1.0 | 2.0 | 0.01 | 0.14 | 0.13 | 97 | 1016.4 |
| 20260830123904 | 64 | 105 | 1.0 | 2.0 | 0.02 | 0.14 | 0.13 | 97 | 1016.4 |
| 20260830123405 | 64 | 90 | 0.0 | 2.0 | 0.02 | 0.14 | 0.13 | 97 | 1016.4 |
| 20260830122904 | 64 | 156 | 0.0 | 2.0 | 0.02 | 0.14 | 0.13 | 97 | 1016.2 |
| 20260830122404 | 64 | 133 | 0.0 | 2.0 | 0.02 | 0.14 | 0.13 | 97 | 1016.3 |
| 20260830121904 | 64 | 165 | 1.0 | 2.0 | 0.01 | 0.13 | 0.12 | 97 | 1016.3 |
| 20260830120905 | 64 | 110 | 1.0 | 2.0 | 0.02 | 0.13 | 0.12 | 97 | 1016.2 |
| 20260830120405 | 64 | 106 | 0.0 | 2.0 | 0.02 | 0.13 | 0.12 | 97 | 1016.1 |
| 20260830115905 | 64 | 125 | 1.0 | 3.0 | 0.02 | 0.13 | 0.12 | 97 | 1016.1 |
| 20260830114904 | 64 | 117 | 1.0 | 3.0 | 0.02 | 0.13 | 0.12 | 97 | 1016.2 |
| 20260830113904 | 64 | 138 | 1.0 | 2.0 | 0.01 | 0.12 | 0.11 | 97 | 1016.2 |
| 20260830113405 | 64 | 122 | 0.0 | 1.0 | 0.01 | 0.12 | 0.11 | 97 | 1016.2 |
| 20260830112904 | 64 | 109 | 0.0 | 1.0 | 0.01 | 0.12 | 0.11 | 97 | 1016.3 |
| 20260830111904 | 64 | 103 | 0.0 | 2.0 | 0.01 | 0.12 | 0.11 | 97 | 1016.1 |
| 20260830111411 | 64 | 95 | 0.0 | 1.0 | 0.01 | 0.12 | 0.11 | 97 | 1016.2 |
| 20260830110905 | 64 | 92 | 0.0 | 1.0 | 0.00 | 0.11 | 0.10 | 97 | 1016.2 |
| 20260830110405 | 64 | 96 | 0.0 | 2.0 | 0.00 | 0.11 | 0.10 | 97 | 1016.2 |
| 20260830105904 | 64 | 134 | 0.0 | 2.0 | 0.00 | 0.11 | 0.10 | 97 | 1016.1 |
| 20260830104905 | 64 | 123 | 0.0 | 1.0 | 0.00 | 0.11 | 0.10 | 97 | 1016.2 |
| 20260830104405 | 64 | 118 | 0.0 | 1.0 | 0.00 | 0.11 | 0.10 | 97 | 1016.2 |
| 20260830102905 | 64 | 84 | 0.0 | 1.0 | 0.00 | 0.11 | 0.10 | 97 | 1016.3 |
| 20260830102404 | 64 | 79 | 0.0 | 1.0 | 0.00 | 0.11 | 0.10 | 97 | 1016.3 |
| 20260830101904 | 64 | 66 | 0.0 | 0.0 | 0.00 | 0.11 | 0.10 | 97 | 1016.3 |
| 20260830101404 | 64 | 66 | 0.0 | 1.0 | 0.00 | 0.11 | 0.10 | 97 | 1016.3 |
| 20260830100905 | 64 | 73 | 0.0 | 0.0 | 0.00 | 0.11 | 0.10 | 97 | 1016.3 |
| 20260830100405 | 64 | 115 | 0.0 | 1.0 | 0.00 | 0.11 | 0.10 | 97 | 1016.1 |
| 20260830095905 | 64 | 124 | 0.0 | 1.0 | 0.00 | 0.11 | 0.10 | 96 | 1015.9 |
| 20260830095404 | 64 | 142 | 0.0 | 1.0 | 0.00 | 0.11 | 0.10 | 96 | 1015.8 |
| 20260830094405 | 64 | 142 | 1.0 | 2.0 | 0.00 | 0.11 | 0.10 | 97 | 1015.8 |
| 20260830093905 | 64 | 124 | 1.0 | 2.0 | 0.00 | 0.11 | 0.10 | 97 | 1015.9 |
| 20260830093404 | 64 | 143 | 1.0 | 2.0 | 0.00 | 0.11 | 0.10 | 97 | 1016.0 |
| 20260830092905 | 64 | 136 | 0.0 | 2.0 | 0.00 | 0.11 | 0.10 | 97 | 1016.0 |
| 20260830091904 | 64 | 145 | 1.0 | 2.0 | 0.00 | 0.11 | 0.10 | 97 | 1016.0 |
| 20260830091404 | 64 | 129 | 0.0 | 2.0 | 0.00 | 0.11 | 0.10 | 97 | 1016.1 |
| 20260830090405 | 64 | 142 | 1.0 | 2.0 | 0.00 | 0.11 | 0.10 | 96 | 1016.0 |
| 20260830085905 | 64 | 143 | 1.0 | 2.0 | 0.00 | 0.11 | 0.10 | 96 | 1016.0 |
| 20260830084404 | 64 | 157 | 1.0 | 2.0 | 0.00 | 0.11 | 0.10 | 96 | 1016.4 |
| 20260830083904 | 64 | 142 | 1.0 | 2.0 | 0.00 | 0.11 | 0.10 | 96 | 1016.4 |
| 20260830083405 | 64 | 137 | 0.0 | 1.0 | 0.00 | 0.11 | 0.10 | 96 | 1016.6 |
| 20260830082905 | 64 | 142 | 0.0 | 2.0 | 0.00 | 0.11 | 0.10 | 96 | 1016.6 |
| 20260830081904 | 64 | 142 | 0.0 | 2.0 | 0.00 | 0.11 | 0.10 | 96 | 1016.7 |
| 20260830081404 | 64 | 138 | 0.0 | 2.0 | 0.01 | 0.11 | 0.10 | 96 | 1016.8 |
| 20260830080904 | 64 | 146 | 0.0 | 2.0 | 0.01 | 0.11 | 0.10 | 96 | 1017.0 |
| 20260830080405 | 64 | 126 | 0.0 | 1.0 | 0.01 | 0.11 | 0.10 | 96 | 1017.0 |
| 20260830075904 | 64 | 139 | 0.0 | 1.0 | 0.01 | 0.11 | 0.10 | 96 | 1017.1 |
| 20260830075410 | 64 | 131 | 0.0 | 1.0 | 0.01 | 0.11 | 0.10 | 96 | 1017.0 |
| 20260830074904 | 64 | 98 | 0.0 | 1.0 | 0.01 | 0.11 | 0.10 | 96 | 1017.0 |
| 20260830074405 | 64 | 130 | 0.0 | 1.0 | 0.01 | 0.11 | 0.10 | 96 | 1017.1 |
| 20260830073910 | 64 | 116 | 1.0 | 2.0 | 0.01 | 0.11 | 0.10 | 95 | 1017.3 |
| 20260830073404 | 64 | 80 | 0.0 | 1.0 | 0.01 | 0.11 | 0.10 | 95 | 1017.3 |
| 20260830072905 | 64 | 41 | 0.0 | 1.0 | 0.01 | 0.11 | 0.10 | 95 | 1017.1 |
| 20260830072410 | 64 | 127 | 0.0 | 1.0 | 0.01 | 0.11 | 0.10 | 95 | 1017.1 |
| 20260830071904 | 64 | 129 | 0.0 | 1.0 | 0.02 | 0.11 | 0.10 | 95 | 1017.1 |
| 20260830071405 | 64 | 137 | 0.0 | 2.0 | 0.01 | 0.10 | 0.09 | 95 | 1017.2 |
| 20260830070910 | 64 | 145 | 0.0 | 2.0 | 0.03 | 0.10 | 0.09 | 95 | 1017.3 |
| 20260830070405 | 64 | 139 | 1.0 | 2.0 | 0.04 | 0.10 | 0.09 | 95 | 1017.4 |
| 20260830065904 | 65 | 158 | 1.0 | 2.0 | 0.04 | 0.10 | 0.09 | 95 | 1017.6 |
| 20260830065410 | 65 | 131 | 1.0 | 3.0 | 0.05 | 0.10 | 0.09 | 95 | 1017.6 |
| 20260830064904 | 65 | 145 | 1.0 | 2.0 | 0.05 | 0.10 | 0.09 | 95 | 1017.7 |
| 20260830064405 | 65 | 149 | 0.0 | 2.0 | 0.06 | 0.10 | 0.09 | 95 | 1017.7 |
| 20260830063910 | 65 | 162 | 1.0 | 2.0 | 0.06 | 0.10 | 0.09 | 95 | 1017.7 |
| 20260830063405 | 65 | 181 | 0.0 | 2.0 | 0.07 | 0.10 | 0.09 | 95 | 1017.8 |
| 20260830062904 | 65 | 146 | 1.0 | 2.0 | 0.08 | 0.10 | 0.09 | 95 | 1017.8 |
| 20260830061404 | 65 | 138 | 0.0 | 2.0 | 0.07 | 0.09 | 0.08 | 95 | 1018.2 |
| 20260830060910 | 66 | 163 | 1.0 | 2.0 | 0.05 | 0.07 | 0.06 | 95 | 1018.3 |
| 20260830060405 | 66 | 155 | 0.0 | 2.0 | 0.04 | 0.06 | 0.05 | 95 | 1018.3 |
| 20260830055904 | 66 | 160 | 1.0 | 5.0 | 0.04 | 0.06 | 0.05 | 95 | 1018.3 |
| 20260830055410 | 66 | 170 | 1.0 | 3.0 | 0.03 | 0.05 | 0.04 | 95 | 1018.4 |
| 20260830054904 | 66 | 137 | 0.0 | 3.0 | 0.03 | 0.05 | 0.04 | 95 | 1018.5 |
| 20260830054403 | 66 | 158 | 0.0 | 2.0 | 0.02 | 0.04 | 0.03 | 95 | 1018.6 |
| 20260830053911 | 66 | 101 | 0.0 | 1.0 | 0.02 | 0.04 | 0.03 | 95 | 1018.5 |
| 20260830053404 | 66 | 110 | 0.0 | 1.0 | 0.01 | 0.03 | 0.02 | 95 | 1018.6 |
| 20260830052904 | 66 | 111 | 1.0 | 2.0 | 0.00 | 0.02 | 0.01 | 95 | 1018.6 |
| 20260830051904 | 66 | 145 | 1.0 | 2.0 | 0.00 | 0.02 | 0.01 | 95 | 1018.6 |
| 20260830051404 | 66 | 95 | 0.0 | 1.0 | 0.00 | 0.02 | 0.01 | 95 | 1018.5 |
| 20260830050904 | 66 | 135 | 0.0 | 1.0 | 0.01 | 0.02 | 0.01 | 95 | 1018.5 |
| 20260830045420 | 66 | 112 | 0.0 | 1.0 | 0.00 | 0.02 | 0.01 | 94 | 1018.4 |
| 20260830044914 | 66 | 123 | 0.0 | 1.0 | 0.00 | 0.02 | 0.01 | 94 | 1018.4 |
| 20260830044414 | 66 | 151 | 0.0 | 1.0 | 0.00 | 0.02 | 0.01 | 94 | 1018.4 |
| 20260830043912 | 66 | 153 | 0.0 | 1.0 | 0.00 | 0.02 | 0.01 | 93 | 1018.3 |
| 20260830043413 | 66 | 136 | 0.0 | 2.0 | 0.00 | 0.02 | 0.01 | 93 | 1018.2 |
| 20260830042913 | 66 | 87 | 0.0 | 2.0 | 0.01 | 0.02 | 0.01 | 93 | 1018.2 |
| 20260830042413 | 66 | 149 | 0.0 | 2.0 | 0.01 | 0.02 | 0.01 | 93 | 1018.3 |
| 20260830040913 | 67 | 114 | 0.0 | 1.0 | 0.00 | 0.01 | 0.00 | 92 | 1018.3 |
| 20260830040413 | 67 | 178 | 0.0 | 1.0 | 0.00 | 0.01 | 0.00 | 92 | 1018.2 |
| 20260830035912 | 67 | 137 | 0.0 | 2.0 | 0.01 | 0.01 | 0.01 | 91 | 1018.2 |
| 20260830035412 | 67 | 153 | 0.0 | 1.0 | 0.01 | 0.01 | 0.01 | 91 | 1018.2 |
| 20260830034913 | 67 | 144 | 0.0 | 1.0 | 0.01 | 0.01 | 0.01 | 91 | 1018.2 |
| 20260830033913 | 67 | 140 | 0.0 | 1.0 | 0.01 | 0.01 | 0.01 | 90 | 1018.2 |
| 20260830033412 | 68 | 89 | 0.0 | 1.0 | 0.01 | 0.01 | 0.01 | 89 | 1018.1 |
| 20260830032913 | 68 | 142 | 0.0 | 1.0 | 0.00 | 0.00 | 0.00 | 89 | 1018.2 |
| 20260830032413 | 68 | 140 | 0.0 | 1.0 | 0.00 | 0.00 | 0.00 | 88 | 1018.2 |
| 20260830031913 | 68 | 127 | 0.0 | 2.0 | 0.00 | 0.00 | 0.00 | 88 | 1018.2 |
| 20260830031413 | 68 | 152 | 0.0 | 2.0 | 0.00 | 0.00 | 0.00 | 87 | 1018.3 |
| 20260830030913 | 68 | 148 | 0.0 | 1.0 | 0.00 | 0.00 | 0.00 | 87 | 1018.4 |
| 20260830030413 | 68 | 152 | 0.0 | 1.0 | 0.00 | 0.00 | 0.00 | 87 | 1018.4 |
| 20260830025912 | 68 | 160 | 0.0 | 1.0 | 0.00 | 0.00 | 0.00 | 87 | 1018.3 |
| 20260830024913 | 68 | 131 | 0.0 | 2.0 | 0.00 | 0.00 | 0.00 | 86 | 1018.3 |
| 20260830023913 | 68 | 122 | 0.0 | 2.0 | 0.00 | 0.00 | 0.00 | 86 | 1018.4 |
| 20260830022912 | 68 | 123 | 0.0 | 1.0 | 0.00 | 0.00 | 0.00 | 85 | 1018.2 |
| 20260830022413 | 68 | 140 | 0.0 | 2.0 | 0.00 | 0.00 | 0.00 | 85 | 1018.2 |
| 20260830021913 | 68 | 134 | 0.0 | 2.0 | 0.00 | 0.00 | 0.00 | 85 | 1018.2 |
| 20260830021413 | 68 | 147 | 0.0 | 2.0 | 0.00 | 0.00 | 0.00 | 84 | 1018.2 |
| 20260830020912 | 68 | 74 | 0.0 | 2.0 | 0.00 | 0.00 | 0.00 | 84 | 1018.2 |
| 20260830020413 | 68 | 119 | 0.0 | 1.0 | 0.00 | 0.00 | 0.00 | 84 | 1018.2 |
| 20260830015913 | 68 | 150 | 0.0 | 3.0 | 0.00 | 0.00 | 0.00 | 84 | 1018.1 |
| 20260830015413 | 68 | 115 | 0.0 | 1.0 | 0.00 | 0.00 | 0.00 | 84 | 1018.0 |
| 20260830014913 | 68 | 156 | 0.0 | 2.0 | 0.00 | 0.00 | 0.00 | 84 | 1017.9 |
| 20260830014413 | 68 | 145 | 0.0 | 2.0 | 0.00 | 0.00 | 0.00 | 84 | 1017.9 |
| 20260830013912 | 68 | 120 | 0.0 | 3.0 | 0.00 | 0.00 | 0.00 | 84 | 1018.0 |
| 20260830012913 | 69 | 107 | 0.0 | 2.0 | 0.00 | 0.00 | 0.00 | 84 | 1017.9 |